Location: Chanteloup
(48.8560°N, 2.7390°E)
Time: 12:30:37
(UTC+00:00)

Tiangong - Pass Details

Date: 24 October 2021
Orbit: 380 x 384 km, 41.5° (Epoch: 06 December)

Event Time Altitude Azimuth Distance (km) Brightness Sun altitude
Rises 18:22:40 0° 254° (WSW) 2,273 6.4 -17.1°
Reaches altitude 10° 18:25:04 10° 237° (WSW) 1,415 4.7 -17.5°
Maximum altitude 18:27:31 20° 187° (S) 955 3.1 -17.9°
Enters shadow 18:28:06 19° 171° (S) 985 3.0 -18.0°
